EW4529 Weather Reports


Display with metric or nautical units.
time (UTC)temp
F
wind
direction
speed
MPH
gust
MPH
rain 1hr
in
rain 24hr
in
rain mn
in
humidity
%
barometer
mb
20260502170332 60 134 0.0 7.0 0.00 0.00 0.00 49 1012.6
20260502163349 59 15 3.0 9.0 0.00 0.00 0.00 47 1012.9
20260502162328 59 135 1.0 6.0 0.00 0.00 0.00 51 1013.0
20260502161325 59 352 1.0 7.0 0.00 0.00 0.00 48 1013.2
20260502160347 59 260 2.0 4.0 0.00 0.00 0.00 49 1013.3
20260502152313 57 13 1.0 6.0 0.00 0.00 0.00 56 1013.3
20260502151310 56 134 1.0 5.0 0.00 0.00 0.00 59 1013.3
20260502150348 56 60 0.0 4.0 0.00 0.00 0.00 62 1013.2
20260502130325 52 347 1.0 8.0 0.00 0.00 0.00 76 1013.3
20260502123317 52 79 0.0 7.0 0.00 0.00 0.00 80 1013.2
20260502122313 52 44 1.0 4.0 0.00 0.00 0.00 80 1013.1
20260502121310 52 11 1.0 7.0 0.00 0.00 0.00 80 1013.0
20260502120320 51 4 1.0 4.0 0.00 0.00 0.00 81 1012.9
20260502115343 52 136 2.0 6.0 0.00 0.00 0.00 80 1012.9
20260502114318 52 264 0.0 3.0 0.00 0.00 0.00 81 1012.8
20260502113309 51 347 1.0 3.0 0.00 0.00 0.00 81 1012.7
20260502112325 51 235 0.0 4.0 0.00 0.00 0.00 81 1012.7
20260502111321 51 359 0.0 2.0 0.00 0.00 0.00 82 1012.7
20260502110313 50 345 0.0 3.0 0.00 0.00 0.00 84 1012.6
20260502105310 50 30 0.0 5.0 0.00 0.00 0.00 84 1012.5
20260502104314 49 356 0.0 3.0 0.00 0.00 0.00 86 1012.4
20260502103331 48 145 0.0 1.0 0.00 0.00 0.00 88 1012.3
20260502102325 48 167 0.0 1.0 0.00 0.00 0.00 88 1012.0
20260502101320 48 346 0.0 1.0 0.00 0.00 0.00 87 1012.0
20260502100310 49 346 0.0 0.0 0.00 0.00 0.00 86 1012.0
20260502091311 50 346 0.0 0.0 0.00 0.00 0.00 84 1012.3
20260502090308 50 346 0.0 0.0 0.00 0.00 0.00 84 1012.0
20260502071344 52 124 0.0 0.0 0.00 0.00 0.00 78 1012.0
20260502070313 52 154 0.0 0.0 0.00 0.00 0.00 78 1012.1
20260502065310 52 150 0.0 0.0 0.00 0.00 0.00 78 1012.2
20260502064332 51 150 0.0 0.0 0.00 0.00 0.00 79 1012.2
20260502063324 52 58 0.0 0.0 0.00 0.00 0.00 79 1012.0
20260502062320 52 60 0.0 0.0 0.00 0.00 0.00 79 1012.0
20260502061321 52 59 0.0 0.0 0.00 0.00 0.00 78 1012.1
20260502060311 52 59 0.0 0.0 0.00 0.00 0.00 77 1012.2
20260502055308 52 59 0.0 0.0 0.00 0.00 0.00 77 1012.4
20260502054328 53 11 0.0 0.0 0.00 0.00 0.00 76 1012.5
20260502053323 53 11 0.0 0.0 0.00 0.00 0.00 76 1012.4
20260502052339 53 11 0.0 1.0 0.00 0.00 0.00 75 1012.4
20260502051313 53 72 0.0 3.0 0.00 0.00 0.00 74 1012.5
20260502050332 53 150 0.0 3.0 0.00 0.00 0.00 73 1012.4
20260502045328 53 113 0.0 4.0 0.00 0.00 0.00 72 1012.4
20260502044348 53 127 0.0 5.0 0.00 0.00 0.00 73 1012.4
20260502043317 53 137 0.0 3.0 0.00 0.00 0.00 72 1012.4
20260502042315 53 142 0.0 4.0 0.00 0.00 0.00 72 1012.4
20260502041311 53 149 0.0 1.0 0.00 0.00 0.00 73 1012.3
20260502040350 53 148 0.0 1.0 0.00 0.00 0.00 74 1012.2
20260502035324 54 148 0.0 2.0 0.00 0.00 0.00 73 1012.2
20260502034342 53 148 0.0 0.0 0.00 0.00 0.00 73 1012.1
20260502033310 54 148 0.0 1.0 0.00 0.00 0.00 72 1012.1
20260502032354 54 116 0.0 1.0 0.00 0.00 0.00 72 1011.9
20260502031328 54 155 1.0 4.0 0.00 0.00 0.00 71 1011.9
20260502030318 54 113 1.0 4.0 0.00 0.00 0.00 70 1011.9
20260502025339 54 53 0.0 2.0 0.00 0.00 0.00 70 1012.3
20260502024343 54 143 0.0 3.0 0.00 0.00 0.00 68 1012.4
20260502023328 55 127 1.0 3.0 0.00 0.00 0.00 67 1012.4
20260502022332 54 115 1.0 5.0 0.00 0.00 0.00 67 1012.5
20260502021313 54 20 0.0 3.0 0.00 0.00 0.00 65 1012.7
20260502020331 54 122 0.0 0.0 0.00 0.00 0.00 64 1012.4
20260502015327 55 124 0.0 6.0 0.00 0.00 0.00 63 1012.2
20260502014315 55 130 0.0 4.0 0.00 0.00 0.00 62 1012.3
20260502013312 55 277 0.0 2.0 0.00 0.00 0.00 62 1012.3
20260502012331 56 187 0.0 3.0 0.00 0.00 0.00 60 1012.2
20260502011306 55 166 1.0 3.0 0.00 0.00 0.00 60 1012.2
20260502010320 55 98 0.0 1.0 0.00 0.00 0.00 59 1011.9
20260502005325 55 162 0.0 3.0 0.00 0.00 0.00 58 1011.7
20260502004308 55 151 0.0 0.0 0.00 0.00 0.00 57 1011.9
20260502003326 56 139 0.0 0.0 0.00 0.00 0.00 56 1011.6
20260502002308 56 193 0.0 0.0 0.00 0.00 0.00 55 1011.4
20260502001309 57 210 0.0 1.0 0.00 0.00 0.00 53 1011.3
20260502000326 58 76 0.0 1.0 0.00 0.00 0.00 52 1011.3
20260501235309 58 74 0.0 0.0 0.00 0.02 0.00 49 1011.2
20260501234317 59 133 0.0 2.0 0.00 0.02 0.00 50 1011.1
20260501233315 60 212 0.0 1.0 0.00 0.02 0.00 50 1011.1
20260501232318 60 162 0.0 4.0 0.00 0.02 0.00 47 1010.9
20260501231323 61 121 0.0 4.0 0.00 0.02 0.00 47 1011.0
20260501230323 61 188 0.0 5.0 0.00 0.02 0.00 47 1010.9
20260501225308 62 154 0.0 2.0 0.00 0.02 0.00 46 1010.8
20260501224309 62 129 2.0 3.0 0.00 0.02 0.00 42 1010.8
20260501223323 62 143 1.0 3.0 0.00 0.02 0.00 42 1011.0
20260501222353 62 115 1.0 3.0 0.00 0.02 0.00 42 1011.0
20260501221322 63 326 1.0 6.0 0.00 0.02 0.00 42 1011.0
20260501220347 64 117 2.0 6.0 0.00 0.02 0.00 41 1010.9
20260501215324 64 131 1.0 3.0 0.00 0.02 0.00 42 1010.9
20260501214325 65 255 1.0 4.0 0.00 0.02 0.00 40 1011.0
20260501213351 66 214 1.0 7.0 0.00 0.02 0.00 38 1011.0
20260501212326 67 127 1.0 6.0 0.00 0.02 0.00 38 1011.0
20260501211331 67 136 1.0 7.0 0.00 0.02 0.00 36 1011.1
20260501210333 67 250 1.0 6.0 0.00 0.02 0.00 36 1011.1
20260501205319 69 288 1.0 4.0 0.00 0.02 0.00 35 1011.1
20260501204319 68 292 1.0 5.0 0.00 0.02 0.00 35 1011.0
20260501203315 68 196 1.0 4.0 0.00 0.02 0.00 35 1011.1
20260501202318 68 54 0.0 9.0 0.00 0.02 0.00 37 1011.1
20260501201321 67 155 2.0 8.0 0.00 0.02 0.00 36 1010.9
20260501200337 67 290 1.0 5.0 0.00 0.02 0.00 37 1011.2
20260501195318 68 314 1.0 6.0 0.00 0.02 0.00 36 1011.2
20260501194318 68 138 0.0 7.0 0.00 0.02 0.00 34 1011.4
20260501193312 69 330 1.0 4.0 0.00 0.02 0.00 36 1011.4
20260501192336 68 146 0.0 3.0 0.00 0.02 0.00 39 1011.6
20260501191313 67 240 1.0 4.0 0.00 0.02 0.00 35 1011.7
20260501190308 67 347 1.0 6.0 0.00 0.02 0.00 34 1011.9
20260501185306 68 2 1.0 4.0 0.00 0.02 0.00 36 1012.1
20260501184325 67 124 1.0 4.0 0.00 0.02 0.00 34 1012.1
20260501183323 68 289 0.0 3.0 0.00 0.02 0.00 36 1012.3
20260501182307 67 122 1.0 3.0 0.00 0.02 0.00 36 1012.2
20260501181308 67 128 0.0 6.0 0.00 0.02 0.00 38 1012.3
20260501180324 67 271 1.0 4.0 0.00 0.02 0.00 35 1012.3